When you browse on this site, cookies collect data to enhance your experience and personalize the content and advertising you see.
Visit our Privacy Policy to learn more. By continuing to use the site, you agree to this use of cookies and data.
  • In Czech Republic
  • List of Countries
  • For 7 days
  • Water Temperature
  • Weather Map
  • Weather Widgets
  • user-avatar
    Login

    Hourly Weather Mitrega

    Today, 7 June, Sunday

    Time Temperature Precipitation Wind Pressure Humidity
    00:00 +15°C° 0 mm 2 mps 725 mmHg 93%
    01:00 +14°C° 0 mm 2 mps 725 mmHg 94%
    02:00 +14°C° 0 mm 1 mps 725 mmHg 94%
    03:00 +14°C° 0 mm 1 mps 725 mmHg 94%
    04:00 +14°C° 0 mm 1 mps 725 mmHg 94%
    05:00 +15°C° 0 mm 1 mps 725 mmHg 89%
    06:00 +18°C° 0 mm 1 mps 725 mmHg 84%
    07:00 +20°C° 0 mm 1 mps 725 mmHg 79%
    08:00 +21°C° 0.2 mm 1 mps 725 mmHg 74%
    09:00 +23°C° 0.2 mm 2 mps 725 mmHg 68%
    10:00 +24°C° 0.2 mm 2 mps 725 mmHg 63%
    11:00 +25°C° 1.1 mm 2 mps 725 mmHg 63%
    12:00 +25°C° 1.1 mm 2 mps 725 mmHg 63%
    13:00 +25°C° 1.1 mm 2 mps 725 mmHg 63%
    14:00 +25°C° 0.5 mm 2 mps 725 mmHg 62%
    15:00 +25°C° 0.5 mm 1 mps 725 mmHg 62%
    16:00 +25°C° 0.5 mm 1 mps 724 mmHg 61%
    17:00 +24°C° 0.3 mm 1 mps 724 mmHg 66%
    18:00 +23°C° 0.3 mm 1 mps 724 mmHg 71%
    19:00 +22°C° 0.3 mm 1 mps 724 mmHg 76%
    20:00 +21°C° 0.6 mm 1 mps 724 mmHg 79%
    21:00 +20°C° 0.6 mm 1 mps 724 mmHg 82%
    22:00 +19°C° 0.6 mm 1 mps 724 mmHg 85%
    23:00 +19°C° 0.3 mm 1 mps 724 mmHg 86%

    Tomorrow, 8 June, Monday

    Time Temperature Precipitation Wind Pressure Humidity
    00:00 +18°C° 0.3 mm 1 mps 724 mmHg 87%
    01:00 +18°C° 0.3 mm 1 mps 724 mmHg 89%
    02:00 +18°C° 0.6 mm 1 mps 723 mmHg 90%
    03:00 +16°C° 0.6 mm 1 mps 723 mmHg 91%
    04:00 +16°C° 0.6 mm 1 mps 723 mmHg 93%
    05:00 +17°C° 0.1 mm 2 mps 724 mmHg 93%
    06:00 +17°C° 0.1 mm 3 mps 724 mmHg 92%
    07:00 +18°C° 0.1 mm 4 mps 724 mmHg 92%
    08:00 +18°C° 0.1 mm 3 mps 725 mmHg 90%
    09:00 +18°C° 0.1 mm 3 mps 725 mmHg 88%
    10:00 +18°C° 0.1 mm 3 mps 725 mmHg 85%
    11:00 +19°C° 0.1 mm 3 mps 726 mmHg 83%
    12:00 +19°C° 0.1 mm 4 mps 726 mmHg 81%
    13:00 +19°C° 0.1 mm 4 mps 726 mmHg 79%
    14:00 +18°C° 0.2 mm 4 mps 726 mmHg 80%
    15:00 +18°C° 0.2 mm 4 mps 726 mmHg 82%
    16:00 +17°C° 0.2 mm 4 mps 726 mmHg 83%
    17:00 +15°C° 0 mm 4 mps 726 mmHg 84%
    18:00 +15°C° 0 mm 4 mps 727 mmHg 86%
    19:00 +14°C° 0 mm 4 mps 727 mmHg 87%
    20:00 +13°C° 0 mm 3 mps 727 mmHg 87%
    21:00 +13°C° 0 mm 3 mps 727 mmHg 87%
    22:00 +13°C° 0 mm 3 mps 728 mmHg 87%
    23:00 +12°C° 0 mm 3 mps 728 mmHg 89%

    Day after tomorrow, 9 June, Tuesday

    Time Temperature Precipitation Wind Pressure Humidity
    00:00 +11°C° 0 mm 3 mps 728 mmHg 92%
    01:00 +11°C° 0 mm 3 mps 728 mmHg 94%
    02:00 +12°C° 0 mm 2 mps 728 mmHg 93%
    03:00 +12°C° 0 mm 2 mps 728 mmHg 93%
    04:00 +12°C° 0 mm 2 mps 728 mmHg 92%
    05:00 +12°C° 0 mm 2 mps 728 mmHg 90%
    06:00 +13°C° 0 mm 2 mps 728 mmHg 88%
    07:00 +14°C° 0 mm 2 mps 728 mmHg 87%
    08:00 +14°C° 0 mm 2 mps 729 mmHg 85%
    09:00 +15°C° 0 mm 2 mps 729 mmHg 84%
    10:00 +15°C° 0 mm 2 mps 729 mmHg 83%
    11:00 +16°C° 0 mm 2 mps 729 mmHg 81%
    12:00 +17°C° 0 mm 2 mps 729 mmHg 79%
    13:00 +17°C° 0 mm 3 mps 729 mmHg 77%
    14:00 +17°C° 0 mm 3 mps 729 mmHg 78%
    15:00 +17°C° 0 mm 3 mps 729 mmHg 79%
    16:00 +17°C° 0 mm 3 mps 729 mmHg 80%
    17:00 +17°C° 0 mm 3 mps 728 mmHg 83%
    18:00 +17°C° 0 mm 3 mps 728 mmHg 85%
    19:00 +16°C° 0 mm 2 mps 728 mmHg 87%
    20:00 +16°C° 0 mm 2 mps 728 mmHg 89%
    21:00 +16°C° 0 mm 2 mps 729 mmHg 90%
    22:00 +15°C° 0 mm 2 mps 729 mmHg 91%
    23:00 +15°C° 0 mm 2 mps 729 mmHg 92%

    10 June, Wednesday

    Time Temperature Precipitation Wind Pressure Humidity
    00:00 +15°C° 0 mm 2 mps 728 mmHg 93%
    01:00 +15°C° 0 mm 2 mps 728 mmHg 93%
    02:00 +15°C° 0 mm 2 mps 728 mmHg 94%
    03:00 +15°C° 0 mm 2 mps 728 mmHg 94%
    04:00 +15°C° 0 mm 2 mps 728 mmHg 95%
    05:00 +15°C° 0 mm 2 mps 728 mmHg 94%
    06:00 +15°C° 0 mm 2 mps 728 mmHg 93%
    07:00 +15°C° 0 mm 2 mps 728 mmHg 92%
    08:00 +15°C° 0 mm 2 mps 728 mmHg 90%
    09:00 +16°C° 0 mm 2 mps 728 mmHg 88%
    10:00 +16°C° 0 mm 2 mps 728 mmHg 86%
    11:00 +17°C° 0 mm 2 mps 728 mmHg 82%
    12:00 +18°C° 0 mm 2 mps 727 mmHg 79%
    13:00 +19°C° 0 mm 2 mps 727 mmHg 75%
    14:00 +19°C° 0.1 mm 2 mps 727 mmHg 76%
    15:00 +19°C° 0.1 mm 2 mps 727 mmHg 77%
    16:00 +19°C° 0.1 mm 3 mps 727 mmHg 77%
    17:00 +18°C° 0 mm 3 mps 727 mmHg 81%
    18:00 +18°C° 0 mm 3 mps 726 mmHg 85%
    19:00 +17°C° 0 mm 3 mps 726 mmHg 89%
    20:00 +16°C° 0 mm 2 mps 726 mmHg 92%
    21:00 +15°C° 0 mm 2 mps 726 mmHg 94%
    22:00 +14°C° 0 mm 2 mps 726 mmHg 96%
    23:00 +14°C° 0 mm 2 mps 726 mmHg 96%

    11 June, Thursday

    Time Temperature Precipitation Wind Pressure Humidity
    00:00 +14°C° 0 mm 2 mps 726 mmHg 96%
    01:00 +14°C° 0 mm 2 mps 726 mmHg 97%
    02:00 +14°C° 0 mm 1 mps 726 mmHg 96%
    03:00 +14°C° 0 mm 1 mps 726 mmHg 96%
    04:00 +14°C° 0 mm 1 mps 725 mmHg 96%
    05:00 +15°C° 0 mm 1 mps 726 mmHg 94%
    06:00 +16°C° 0 mm 1 mps 726 mmHg 92%
    07:00 +16°C° 0 mm 1 mps 726 mmHg 90%
    08:00 +19°C° 0 mm 1 mps 726 mmHg 85%
    09:00 +20°C° 0 mm 1 mps 726 mmHg 80%
    10:00 +21°C° 0 mm 2 mps 726 mmHg 75%
    11:00 +21°C° 0.5 mm 2 mps 726 mmHg 74%
    12:00 +23°C° 0.5 mm 2 mps 726 mmHg 73%
    13:00 +24°C° 0.5 mm 2 mps 725 mmHg 72%
    14:00 +24°C° 0.9 mm 1 mps 725 mmHg 72%
    15:00 +24°C° 0.9 mm 1 mps 725 mmHg 73%
    16:00 +24°C° 0.9 mm 1 mps 725 mmHg 74%
    17:00 +23°C° 1.1 mm 1 mps 725 mmHg 78%
    18:00 +22°C° 1.1 mm 1 mps 725 mmHg 82%
    19:00 +21°C° 1.1 mm 1 mps 725 mmHg 86%
    20:00 +20°C° 0.3 mm 1 mps 725 mmHg 88%
    21:00 +19°C° 0.3 mm 1 mps 725 mmHg 89%
    22:00 +19°C° 0.3 mm 1 mps 725 mmHg 91%
    23:00 +18°C° 0.2 mm 1 mps 725 mmHg 92%

    12 June, Friday

    Time Temperature Precipitation Wind Pressure Humidity
    00:00 +18°C° 0.2 mm 1 mps 725 mmHg 92%
    01:00 +18°C° 0.2 mm 1 mps 725 mmHg 92%
    02:00 +18°C° 0 mm 1 mps 725 mmHg 93%
    03:00 +16°C° 0 mm 1 mps 724 mmHg 93%
    04:00 +16°C° 0 mm 1 mps 724 mmHg 94%
    05:00 +18°C° 0 mm 1 mps 725 mmHg 91%
    06:00 +20°C° 0 mm 1 mps 725 mmHg 88%
    07:00 +21°C° 0 mm 1 mps 725 mmHg 86%
    08:00 +22°C° 0.8 mm 1 mps 725 mmHg 81%
    09:00 +23°C° 0.8 mm 1 mps 725 mmHg 76%
    10:00 +24°C° 0.8 mm 1 mps 725 mmHg 71%
    11:00 +25°C° 0.8 mm 1 mps 725 mmHg 68%
    12:00 +26°C° 0.8 mm 1 mps 725 mmHg 64%
    13:00 +26°C° 0.8 mm 1 mps 725 mmHg 61%
    14:00 +26°C° 0.2 mm 1 mps 725 mmHg 61%
    15:00 +26°C° 0.2 mm 1 mps 725 mmHg 61%
    16:00 +26°C° 0.2 mm 1 mps 725 mmHg 61%
    17:00 +25°C° 0.7 mm 1 mps 724 mmHg 67%
    18:00 +24°C° 0.7 mm 1 mps 724 mmHg 73%
    19:00 +23°C° 0.7 mm 1 mps 724 mmHg 80%
    20:00 +22°C° 0 mm 1 mps 724 mmHg 81%
    21:00 +19°C° 0 mm 0 mps 724 mmHg 83%
    22:00 +18°C° 0 mm 0 mps 724 mmHg 84%
    23:00 +17°C° 0 mm 0 mps 724 mmHg 85%
    Show more